K3RTA Weather Reports


time (UTC)temp
C
wind
direction
speed
KPH
gust
KPH
rain 1hr
cm
rain 24hr
cm
rain mn
cm
humidity
%
barometer
mb
20260505153005 25 256 0.0 0.0 0.00 0.00 0.00 45 1010.0
20260505151005 23 243 0.0 9.7 0.00 0.00 0.00 46 1010.2
20260505125005 19 243 1.6 14.5 0.00 0.00 0.00 56 1010.7
20260505124005 18 229 0.0 11.3 0.00 0.00 0.00 58 1010.5
20260505123004 18 239 1.6 11.3 0.00 0.00 0.00 60 1010.3
20260505122005 18 241 1.6 12.9 0.00 0.00 0.00 62 1010.4
20260505121005 17 231 0.0 8.0 0.00 0.00 0.00 63 1010.4
20260505120005 17 261 0.0 0.0 0.00 0.00 0.00 65 1010.3
20260505115005 17 257 0.0 4.8 0.00 0.00 0.00 66 1010.3
20260505114005 16 239 0.0 0.0 0.00 0.00 0.00 66 1010.2
20260505113005 16 243 0.0 1.6 0.00 0.00 0.00 67 1010.2
20260505112005 16 249 0.0 0.0 0.00 0.00 0.00 68 1010.2
20260505111005 16 236 0.0 0.0 0.00 0.00 0.00 69 1010.0
20260505100005 15 248 0.0 0.0 0.00 0.00 0.00 71 1009.6
20260505094005 15 248 0.0 0.0 0.00 0.00 0.00 71 1009.5
20260505093005 15 248 0.0 0.0 0.00 0.00 0.00 71 1009.4
20260505092005 15 236 0.0 0.0 0.00 0.00 0.00 71 1009.4
20260505091005 15 257 0.0 0.0 0.00 0.00 0.00 71 1009.3
20260505084005 15 237 0.0 0.0 0.00 0.00 0.00 74 1009.3
20260505083005 15 240 0.0 0.0 0.00 0.00 0.00 74 1009.3
20260505082005 15 255 0.0 0.0 0.00 0.00 0.00 75 1009.4
20260505081005 15 264 0.0 0.0 0.00 0.00 0.00 75 1009.3
20260505080005 15 264 0.0 0.0 0.00 0.00 0.00 74 1009.4
20260505075005 15 264 0.0 0.0 0.00 0.00 0.00 73 1009.2
20260505073004 16 264 0.0 0.0 0.00 0.00 0.00 69 1009.3
20260505072004 16 264 0.0 0.0 0.00 0.00 0.00 68 1009.3
20260505071005 16 250 0.0 0.0 0.00 0.00 0.00 69 1009.3
20260505070005 16 241 0.0 1.6 0.00 0.00 0.00 69 1009.2
20260505065005 16 286 0.0 0.0 0.00 0.00 0.00 69 1009.1
20260505064004 16 266 0.0 0.0 0.00 0.00 0.00 70 1009.1
20260505063004 16 248 0.0 0.0 0.00 0.00 0.00 71 1009.1
20260505062005 16 247 0.0 0.0 0.00 0.00 0.00 70 1009.1
20260505061004 15 124 0.0 0.0 0.00 0.00 0.00 71 1009.1
20260505055005 16 280 0.0 0.0 0.00 0.00 0.00 69 1009.1
20260505054005 16 272 0.0 0.0 0.00 0.00 0.00 68 1009.3
20260505053004 16 246 0.0 0.0 0.00 0.00 0.00 68 1009.2
20260505051005 16 121 0.0 0.0 0.00 0.00 0.00 67 1009.2
20260505041004 16 223 1.6 37.0 0.00 0.00 0.00 63 1009.1
20260505040005 16 223 0.0 0.0 0.00 0.00 0.00 61 1009.1
20260505035005 16 149 0.0 0.0 0.00 0.00 0.00 60 1009.1
20260505034005 16 213 0.0 0.0 0.00 0.00 0.00 59 1009.1
20260505033005 16 139 0.0 0.0 0.00 0.00 0.00 58 1009.1
20260505032004 17 132 0.0 0.0 0.00 0.00 0.00 57 1009.0
20260505030005 17 156 0.0 0.0 0.00 0.00 0.00 54 1009.1
20260505024006 17 149 0.0 0.0 0.00 0.00 0.00 51 1009.1
20260505023006 17 153 0.0 0.0 0.00 0.00 0.00 50 1009.2
20260505021004 17 155 0.0 0.0 0.00 0.00 0.00 49 1009.2
20260505020004 18 209 0.0 0.0 0.00 0.00 0.00 49 1009.1
20260505015005 18 136 0.0 0.0 0.00 0.00 0.00 48 1009.1
20260505013005 18 153 0.0 0.0 0.00 0.00 0.00 46 1009.0
20260505012004 18 121 0.0 0.0 0.00 0.00 0.00 46 1008.9
20260505011004 18 259 0.0 0.0 0.00 0.00 0.00 45 1008.8
20260505010005 19 152 1.6 8.0 0.00 0.00 0.00 44 1008.7
20260505004005 20 129 0.0 0.0 0.00 0.00 0.00 43 1008.5
20260505003005 20 154 0.0 0.0 0.00 0.00 0.00 41 1008.5
20260505002004 20 160 0.0 8.0 0.00 0.00 0.00 41 1008.5
20260505001005 21 163 0.0 0.0 0.00 0.00 0.00 40 1008.5
20260505000005 21 166 0.0 0.0 0.00 0.00 0.00 39 1008.5
20260504235004 21 151 0.0 0.0 0.00 0.00 0.00 37 1008.4
20260504233005 22 243 0.0 0.0 0.00 0.00 0.00 35 1008.3
20260504230005 23 208 0.0 0.0 0.00 0.00 0.00 34 1008.3
20260504225004 23 163 0.0 0.0 0.00 0.00 0.00 33 1008.3
20260504224004 23 165 0.0 0.0 0.00 0.00 0.00 34 1008.4
20260504223004 23 196 0.0 0.0 0.00 0.00 0.00 33 1008.2
20260504221004 23 257 1.6 11.3 0.00 0.00 0.00 33 1008.4
20260504220004 23 266 0.0 3.2 0.00 0.00 0.00 33 1008.4
20260504215004 23 263 1.6 8.0 0.00 0.00 0.00 33 1008.5
20260504214005 23 262 1.6 19.3 0.00 0.00 0.00 33 1008.6
20260504213004 23 246 3.2 16.1 0.00 0.00 0.00 32 1008.6
20260504212005 23 202 0.0 14.5 0.00 0.00 0.00 33 1008.6
20260504211005 23 222 0.0 3.2 0.00 0.00 0.00 33 1008.6
20260504210005 23 257 3.2 19.3 0.00 0.00 0.00 31 1008.6
20260504204004 23 243 0.0 3.2 0.00 0.00 0.00 32 1008.6
20260504203005 23 209 0.0 4.8 0.00 0.00 0.00 33 1008.8
20260504202005 23 187 0.0 4.8 0.00 0.00 0.00 32 1008.9
20260504194004 22 268 1.6 19.3 0.00 0.00 0.00 32 1009.6
20260504193004 22 236 1.6 24.1 0.00 0.00 0.00 32 1009.8
20260504192005 22 265 0.0 11.3 0.00 0.00 0.00 33 1009.9
20260504191005 22 276 1.6 20.9 0.00 0.00 0.00 32 1009.9
20260504190004 21 285 3.2 19.3 0.00 0.00 0.00 33 1010.1
20260504185005 22 268 1.6 20.9 0.00 0.00 0.00 33 1010.1
20260504184004 21 284 1.6 25.7 0.00 0.00 0.00 34 1010.2
20260504180005 21 288 0.0 19.3 0.00 0.00 0.00 33 1010.6
20260504175004 21 285 3.2 22.5 0.00 0.00 0.00 33 1010.7
20260504174005 20 287 1.6 11.3 0.00 0.00 0.00 33 1010.9
20260504173004 21 271 0.0 14.5 0.00 0.00 0.00 32 1011.1
20260504172005 20 269 3.2 19.3 0.00 0.00 0.00 32 1011.3
20260504171005 20 244 0.0 4.8 0.00 0.00 0.00 31 1011.5